Weather in Bol'shiye Mosty

Russia / Nizhny Novgorod Oblast'     57°08′54″N   43°50′01″E
temp.,
°C
wind,
m/s
gust,
m/s
humid.,
%
clouds,
%
prec.,
mm/h
press.,
hPa
HPBL,
m
16 april, fri
fri1600:00+6ne5149099 0.0 1023478
03:00+4ene5148732 0.0 1024499
06:00+4ene5148845 0.0 1025516
09:00+7ene6117862 0.0 1026558
12:00+10ene597365 0.0 1026817
15:00+11ene586438 0.0 1026979
18:00+9ene5116619 0.0 1027679
21:00+5ene413785 0.0 1028488
17 april, sat
sat1700:00+4ene412805 0.0 1028393
03:00+2ene412805 0.0 1029328
06:00+2ene412785 0.0 1029356
09:00+7e59545 0.0 1029599
12:00+11e57425 0.0 10281026
15:00+12ene56405 0.0 10281201
18:00+9ene38540 0.0 1027378
21:00+5ene310763 0.0 1028198
18 april, sun
sun1800:00+3ene311792 0.0 1028234
03:00+2ene39870 0.0 1028188
06:00+3ene311844 0.0 1028285
09:00+8ene48575 0.0 1028769
12:00+12ene57458 0.0 10271587
15:00+12ene674472 0.0 10271867
18:00+9ene696639 0.0 10281011
21:00+5ene51176100 0.0 1029642
19 april, mon
mon1900:00+4ene51168100 0.0 1030618
03:00+3ene51161100 0.0 1030518
06:00+2e41165100 0.0 1031568
09:00+5e595296 0.0 1032736
12:00+8ese683930 0.0 10321377
15:00+9e67334 0.0 10311673
18:00+8e58405 0.0 10311129
21:00+4e412490 0.0 1032470
20 april, tue
tue2000:00+2e413565 0.0 1032511
03:000e4126121 0.0 1031411
06:000e514605 0.0 1031486
09:00+6ese61249100 0.0 1029944
12:00+10ese7114298 0.0 10271387
15:00+11ese71242100 0.0 10251447
18:00+8ese71450100 0.0 10231144
21:00+7ese7165196 0.0 1022983